Location: Newark
(44.9684°N, 1.0319°E)
Time: 01:08:22
(UTC+00:00)

ISS - Visible Passes

Search period start: 21 July 2019 00:00
Search period end: 31 July 2019 00:00
Orbit: 409 x 418 km, 51.6° (Epoch: 20 July)

Date Brightness Start Highest point End Pass type
(mag) Time Alt. Az. Time Alt. Az. Time Alt. Az.
21 Jul -2.2 00:14:53 10° NW 00:17:59 35° NNE 00:18:01 35° NNE visible
21 Jul -3.5 20:10:49 10° WSW 20:14:09 76° NNW 20:17:30 10° ENE visible
21 Jul -1.6 21:48:17 10° WNW 21:51:12 27° N 21:54:08 10° NE visible
21 Jul -1.8 23:25:34 10° NW 23:28:32 29° NNE 23:29:24 25° NE visible
22 Jul -0.8 01:02:10 10° WNW 01:02:10 10° WNW 01:02:10 10° WNW visible
22 Jul -1.9 20:58:40 10° W 21:01:43 32° NNW 21:04:46 10° NE visible
22 Jul -1.6 22:36:10 10° NW 22:39:02 26° N 22:41:11 14° ENE visible
23 Jul -1.4 00:12:52 10° NW 00:13:58 19° NW 00:13:58 19° NW visible
23 Jul -2.3 20:09:04 10° W 20:12:15 40° NNW 20:15:27 10° NE visible
23 Jul -1.5 21:46:41 10° WNW 21:49:31 25° N 21:52:20 10° ENE visible
23 Jul -2.1 23:23:33 10° NW 23:25:55 34° NNW 23:25:55 34° NNW visible
24 Jul -1.5 20:57:07 10° WNW 20:59:58 25° N 21:02:51 10° NE visible
24 Jul -2.2 22:34:13 10° NW 22:37:17 33° NNE 22:37:57 30° NE visible
25 Jul -1.7 20:07:29 10° WNW 20:10:27 28° N 20:13:24 10° NE visible
25 Jul -1.8 21:44:50 10° NW 21:47:47 28° N 21:50:01 14° ENE visible
25 Jul -1.6 23:21:27 10° WNW 23:22:50 23° WNW 23:22:50 23° WNW visible
26 Jul -1.7 20:55:22 10° NW 20:58:14 25° N 21:01:05 10° ENE visible
26 Jul -2.9 22:32:05 10° NW 22:34:57 49° N 22:34:57 49° N visible
27 Jul -1.6 20:05:49 10° WNW 20:08:40 25° N 20:11:30 10° ENE visible
27 Jul -2.6 21:42:44 10° NW 21:45:55 39° NNE 21:47:05 28° ENE visible
27 Jul -1.0 23:19:27 10° WNW 23:19:54 13° WNW 23:19:54 13° WNW visible
28 Jul -2.2 20:53:21 10° NW 20:56:24 31° NNE 20:59:16 11° ENE visible
28 Jul -2.4 22:29:58 10° WNW 22:32:05 35° WNW 22:32:05 35° WNW visible
29 Jul -1.9 20:03:54 10° NW 20:06:50 27° N 20:09:45 10° ENE visible
29 Jul -3.8 21:40:33 10° WNW 21:43:54 73° NNE 21:44:16 63° E visible
30 Jul -3.1 20:51:10 10° NW 20:54:26 49° NNE 20:56:30 20° E visible
30 Jul -1.5 22:28:02 10° WNW 22:29:19 19° W 22:29:19 19° W visible
